{"data":{"norad_id":48684,"intl_designator":"2021-044AY","name":"STARLINK-2741","alt_names":[],"object_type":"PAYLOAD","status":"ACTIVE","operator":null,"country":"US","launch_date":"2021-05-26","launch_site_code":"AFETR","launch_vehicle":null,"mission":null,"orbit_class":"UNKNOWN","rcs_meters":null,"size_class":null,"mass_kg":null,"dimensions":null,"purposes":["comms"],"wikipedia_slug":null,"has_3d_model":false,"image_url":null,"decayed_at":null,"tle_current":{"epoch":"2026-05-25T03:34:07.831200Z","epoch_age_seconds":62233,"freshness":"FRESH","line1":"1 48684U 21044AY  26145.14870175  .00000487  00000+0  27467-4 0  9990","line2":"2 48684  53.1597  82.3006 0001206  86.6669 273.4471 15.31701420276042","mean_motion":15.3170142,"eccentricity":0.0001206,"inclination_deg":53.1597,"raan_deg":82.3006,"arg_perigee_deg":86.6669,"mean_anomaly_deg":273.4471,"bstar":2.7467e-5,"rev_number":27604,"period_min":94.013100803941,"perigee_km":469.90978822768,"apogee_km":471.56173633794,"semimajor_km":6848.8727622828,"source":"CELESTRAK","updated_at":"2026-05-25T13:38:16.761347Z"}}}